Location: Paris
(48.6709°N, 2.3750°E)
Time: 12:29:26
(UTC+02:00)

CUBESAT XI-V - Pass Details

Date: 28 June 2022
Orbit: 668 x 690 km, 98.1° (Epoch: 17 August)

Event Time Altitude Azimuth Distance (km) Brightness Sun altitude
Exits shadow 04:48:10 10° 230° (SW) 2,118 ? -8.2°
Reaches altitude 10° 04:48:12 10° 230° (SW) 2,110 ? -8.2°
Maximum altitude 04:51:08 17° 270° (W) 1,704 ? -7.9°
Drops below altitude 10° 04:54:06 10° 310° (NW) 2,113 ? -7.6°
Sets 04:57:07 0° 331° (NNW) 3,030 ? -7.2°
